Location: Unspecified
(0.0000°N, 0.0000°E)
Time: 07:47:12
(UTC+00:00)

Vanguard 2 Rocket - Pass Details

Date: 07 October 2023
Orbit: 552 x 3312 km, 32.9° (Epoch: 06 December)

Event Time Altitude Azimuth Distance (km) Brightness Sun altitude
Rises 11:19:00 0° 317° (NW) 6,222 11.1 80.9°
Reaches altitude 10° 11:25:03 10° 334° (NNW) 5,645 11.0 82.1°
Maximum altitude 11:36:46 20° 14° (NNE) 5,366 11.0 83.8°
Drops below altitude 10° 11:49:31 10° 54° (NE) 6,218 11.2 84.5°
Sets 11:56:40 0° 70° (ENE) 7,038 11.4 84.1°
